Location: Houhaj�rvi
(61.2667°N, 23.0167°E)
Time: 19:03:31
(UTC+00:00)

Lacrosse 5 rocket - Pass Details

Date: 13 December 2019
Orbit: 464 x 633 km, 57.0° (Epoch: 17 January)

Event Time Altitude Azimuth Distance (km) Brightness Sun altitude
Rises 18:23:20 0° 269° (W) 2,730 5.8 -34.6°
Reaches altitude 10° 18:25:42 10° 262° (W) 1,804 4.6 -34.9°
Enters shadow 18:26:05 12° 260° (W) 1,656 4.4 -34.9°
